Time,TemperatureF,DewpointF,PressureIn,WindDirection,WindDirectionDegrees,WindSpeedMPH,WindSpeedGustMPH,Humidity,HourlyPrecipIn,Conditions,Clouds,dailyrainin,SoftwareType,DateUTC
2013-06-10 00:01:00,64.0,61.5,30.21,NNW,337,0.0,0.0,91,0.00,,,0.00,Rainwise IP-100,2013-06-10 04:01:00,
2013-06-10 00:02:00,63.9,61.5,30.20,NNW,337,0.0,0.0,91,0.00,,,0.00,Rainwise IP-100,2013-06-10 04:02:00,
2013-06-10 00:06:00,63.8,61.5,30.20,NNW,337,0.0,0.0,91,0.00,,,0.00,Rainwise IP-100,2013-06-10 04:06:00,
2013-06-10 00:11:00,63.7,61.0,30.21,NNW,337,2.3,2.3,91,0.00,,,0.00,Rainwise IP-100,2013-06-10 04:11:00,
2013-06-10 00:17:00,63.6,61.0,30.21,NNW,337,2.1,2.8,91,0.00,,,0.00,Rainwise IP-100,2013-06-10 04:17:00,
2013-06-10 00:22:00,63.5,61.0,30.21,NNW,337,2.3,3.5,92,0.00,,,0.00,Rainwise IP-100,2013-06-10 04:22:00,
2013-06-10 00:27:00,63.4,61.0,30.21,NNW,337,1.4,3.0,92,0.00,,,0.00,Rainwise IP-100,2013-06-10 04:27:00,
2013-06-10 00:32:00,63.3,61.0,30.21,North,360,2.1,4.0,92,0.00,,,0.00,Rainwise IP-100,2013-06-10 04:32:00,
2013-06-10 00:37:00,63.2,60.5,30.21,North,360,2.8,4.7,92,0.00,,,0.00,Rainwise IP-100,2013-06-10 04:37:00,
2013-06-10 00:42:00,63.3,61.0,30.21,NNW,337,3.7,4.0,92,0.00,,,0.00,Rainwise IP-100,2013-06-10 04:42:00,
2013-06-10 00:47:00,63.2,60.5,30.21,NNW,337,0.0,4.7,92,0.00,,,0.00,Rainwise IP-100,2013-06-10 04:47:00,
2013-06-10 00:53:00,63.0,61.0,30.21,North,360,2.6,4.2,93,0.00,,,0.00,Rainwise IP-100,2013-06-10 04:53:00,
2013-06-10 00:58:00,63.0,61.0,30.21,NNW,337,1.2,4.4,93,0.00,,,0.00,Rainwise IP-100,2013-06-10 04:58:00,
2013-06-10 01:03:00,63.0,61.0,30.20,NNW,337,3.0,3.5,93,0.00,,,0.00,Rainwise IP-100,2013-06-10 05:03:00,
2013-06-10 01:08:00,63.0,61.0,30.21,NNW,337,1.2,4.4,93,0.00,,,0.00,Rainwise IP-100,2013-06-10 05:08:00,
2013-06-10 01:13:00,62.9,61.0,30.21,NNE,22,0.0,3.7,93,0.00,,,0.00,Rainwise IP-100,2013-06-10 05:13:00,
2013-06-10 01:18:00,62.9,61.0,30.21,NNE,22,0.0,1.6,93,0.00,,,0.00,Rainwise IP-100,2013-06-10 05:18:00,
2013-06-10 01:23:00,62.8,61.0,30.21,NNE,22,0.0,2.8,93,0.00,,,0.00,Rainwise IP-100,2013-06-10 05:23:00,
2013-06-10 01:28:00,62.9,61.0,30.21,North,360,1.2,2.6,93,0.00,,,0.00,Rainwise IP-100,2013-06-10 05:28:00,
2013-06-10 01:33:00,63.0,61.0,30.21,NNW,337,3.5,3.5,93,0.00,,,0.00,Rainwise IP-100,2013-06-10 05:33:00,
2013-06-10 01:39:00,63.0,61.0,30.21,NNW,337,2.6,3.7,93,0.00,,,0.00,Rainwise IP-100,2013-06-10 05:39:00,
2013-06-10 01:44:00,63.0,61.0,30.20,North,360,5.1,5.1,93,0.00,,,0.00,Rainwise IP-100,2013-06-10 05:44:00,
2013-06-10 01:49:00,63.1,61.0,30.21,NNW,337,3.0,6.3,93,0.00,,,0.00,Rainwise IP-100,2013-06-10 05:49:00,
2013-06-10 01:54:00,63.3,61.5,30.21,NNW,337,2.6,4.2,93,0.00,,,0.00,Rainwise IP-100,2013-06-10 05:54:00,
2013-06-10 01:59:00,63.4,61.0,30.21,North,360,1.6,4.2,92,0.00,,,0.00,Rainwise IP-100,2013-06-10 05:59:00,
2013-06-10 02:04:00,63.4,61.0,30.20,North,360,2.1,3.0,92,0.00,,,0.00,Rainwise IP-100,2013-06-10 06:04:00,
2013-06-10 02:09:00,63.3,61.0,30.21,North,360,2.6,4.2,92,0.00,,,0.00,Rainwise IP-100,2013-06-10 06:09:00,
2013-06-10 02:10:00,63.3,61.0,30.21,North,360,1.2,4.2,92,0.00,,,0.00,Rainwise IP-100,2013-06-10 06:10:00,
2013-06-10 02:14:00,63.2,60.5,30.20,North,360,2.8,3.3,92,0.00,,,0.00,Rainwise IP-100,2013-06-10 06:14:00,
2013-06-10 02:20:00,63.2,60.5,30.20,NNW,337,3.7,4.7,92,0.00,,,0.00,Rainwise IP-100,2013-06-10 06:20:00,
2013-06-10 02:25:00,63.1,60.5,30.20,NNW,337,3.0,4.9,92,0.00,,,0.00,Rainwise IP-100,2013-06-10 06:25:00,
2013-06-10 02:30:00,63.1,60.5,30.20,NNW,337,0.0,5.6,92,0.00,,,0.00,Rainwise IP-100,2013-06-10 06:30:00,
2013-06-10 02:35:00,63.1,60.5,30.20,NE,45,2.3,2.3,92,0.00,,,0.00,Rainwise IP-100,2013-06-10 06:35:00,
2013-06-10 02:40:00,63.1,60.5,30.20,NNE,22,1.2,4.2,92,0.00,,,0.00,Rainwise IP-100,2013-06-10 06:40:00,
2013-06-10 02:45:00,63.2,60.5,30.20,NE,45,0.0,2.6,92,0.00,,,0.00,Rainwise IP-100,2013-06-10 06:45:00,
2013-06-10 02:50:00,63.2,60.5,30.20,ENE,67,0.0,2.3,92,0.00,,,0.00,Rainwise IP-100,2013-06-10 06:50:00,
2013-06-10 02:55:00,63.0,60.5,30.20,ENE,67,0.0,2.8,92,0.00,,,0.00,Rainwise IP-100,2013-06-10 06:55:00,
2013-06-10 03:01:00,62.9,60.5,30.20,ENE,67,0.0,1.4,92,0.00,,,0.00,Rainwise IP-100,2013-06-10 07:01:00,
2013-06-10 03:06:00,62.8,60.5,30.20,ENE,67,0.0,0.0,92,0.00,,,0.00,Rainwise IP-100,2013-06-10 07:06:00,
2013-06-10 03:11:00,62.8,60.5,30.20,North,360,2.8,3.0,92,0.00,,,0.00,Rainwise IP-100,2013-06-10 07:11:00,
2013-06-10 03:16:00,62.8,60.5,30.19,NNE,22,4.0,4.7,92,0.00,,,0.00,Rainwise IP-100,2013-06-10 07:16:00,
2013-06-10 03:21:00,62.8,60.5,30.19,NNE,22,1.4,4.0,92,0.00,,,0.00,Rainwise IP-100,2013-06-10 07:21:00,
2013-06-10 03:26:00,62.8,60.5,30.19,NNE,22,1.2,2.8,92,0.00,,,0.00,Rainwise IP-100,2013-06-10 07:26:00,
2013-06-10 03:31:00,62.9,60.5,30.20,NNE,22,0.0,2.6,92,0.00,,,0.00,Rainwise IP-100,2013-06-10 07:31:00,
2013-06-10 03:36:00,62.8,61.0,30.20,NNE,22,2.1,2.1,93,0.00,,,0.00,Rainwise IP-100,2013-06-10 07:36:00,
2013-06-10 03:42:00,62.8,60.5,30.20,North,360,1.6,3.0,92,0.00,,,0.00,Rainwise IP-100,2013-06-10 07:42:00,
2013-06-10 03:47:00,62.9,60.5,30.20,North,360,1.9,2.1,92,0.00,,,0.00,Rainwise IP-100,2013-06-10 07:47:00,
2013-06-10 03:52:00,62.9,60.5,30.20,North,360,1.4,2.6,92,0.00,,,0.00,Rainwise IP-100,2013-06-10 07:52:00,
2013-06-10 03:57:00,62.9,60.5,30.20,North,360,2.8,2.8,92,0.00,,,0.00,Rainwise IP-100,2013-06-10 07:57:00,
2013-06-10 04:02:00,63.0,60.5,30.20,NNE,22,3.0,3.3,92,0.00,,,0.00,Rainwise IP-100,2013-06-10 08:02:00,
2013-06-10 04:07:00,63.0,60.5,30.20,North,360,2.1,3.3,92,0.00,,,0.00,Rainwise IP-100,2013-06-10 08:07:00,
2013-06-10 04:12:00,63.1,60.5,30.20,NNE,22,1.6,3.5,92,0.00,,,0.00,Rainwise IP-100,2013-06-10 08:12:00,
2013-06-10 04:18:00,63.0,60.5,30.19,North,360,1.4,4.0,92,0.00,,,0.00,Rainwise IP-100,2013-06-10 08:18:00,
2013-06-10 04:23:00,63.0,60.5,30.19,NNE,22,2.3,3.7,92,0.00,,,0.00,Rainwise IP-100,2013-06-10 08:23:00,
2013-06-10 04:28:00,63.0,60.5,30.20,North,360,2.6,5.4,92,0.00,,,0.00,Rainwise IP-100,2013-06-10 08:28:00,
2013-06-10 04:33:00,63.0,60.5,30.20,NNE,22,3.3,5.8,92,0.00,,,0.00,Rainwise IP-100,2013-06-10 08:33:00,
2013-06-10 04:38:00,63.0,60.5,30.19,North,360,3.7,4.0,92,0.00,,,0.00,Rainwise IP-100,2013-06-10 08:38:00,
2013-06-10 04:43:00,62.9,60.5,30.19,NE,45,4.2,5.6,92,0.00,,,0.00,Rainwise IP-100,2013-06-10 08:43:00,
2013-06-10 04:48:00,62.8,60.5,30.19,NE,45,2.3,6.8,92,0.00,,,0.00,Rainwise IP-100,2013-06-10 08:48:00,
2013-06-10 04:53:00,62.8,60.5,30.19,NNE,22,2.6,5.8,92,0.00,,,0.00,Rainwise IP-100,2013-06-10 08:53:00,
2013-06-10 04:59:00,62.7,60.0,30.19,North,360,1.6,5.6,92,0.00,,,0.00,Rainwise IP-100,2013-06-10 08:59:00,
2013-06-10 05:04:00,62.7,60.5,30.19,North,360,2.3,3.5,93,0.00,,,0.00,Rainwise IP-100,2013-06-10 09:04:00,
2013-06-10 05:09:00,62.6,60.5,30.19,NNE,22,3.0,4.0,93,0.00,,,0.00,Rainwise IP-100,2013-06-10 09:09:00,
2013-06-10 05:14:00,62.6,60.5,30.19,North,360,3.0,3.3,93,0.00,,,0.00,Rainwise IP-100,2013-06-10 09:14:00,
2013-06-10 05:19:00,62.6,60.5,30.19,NNE,22,2.8,3.7,93,0.00,,,0.00,Rainwise IP-100,2013-06-10 09:19:00,
2013-06-10 05:24:00,62.5,60.5,30.18,NNW,337,1.4,3.7,93,0.00,,,0.00,Rainwise IP-100,2013-06-10 09:24:00,
2013-06-10 05:29:00,62.4,61.0,30.19,NNE,22,2.6,4.2,94,0.00,,,0.00,Rainwise IP-100,2013-06-10 09:29:00,
2013-06-10 05:35:00,62.4,61.0,30.19,NNW,337,2.8,4.2,94,0.00,,,0.00,Rainwise IP-100,2013-06-10 09:35:00,
2013-06-10 05:40:00,62.5,61.0,30.19,North,360,2.3,4.9,94,0.00,,,0.00,Rainwise IP-100,2013-06-10 09:40:00,
2013-06-10 05:45:00,62.6,61.0,30.19,NNE,22,2.8,4.2,94,0.00,,,0.00,Rainwise IP-100,2013-06-10 09:45:00,
2013-06-10 05:50:00,62.6,61.0,30.19,NNE,22,2.8,4.9,94,0.00,,,0.00,Rainwise IP-100,2013-06-10 09:50:00,
2013-06-10 05:55:00,62.6,61.0,30.19,North,360,3.3,5.1,94,0.00,,,0.00,Rainwise IP-100,2013-06-10 09:55:00,
2013-06-10 06:00:00,62.7,61.0,30.19,NNE,22,2.8,4.9,94,0.00,,,0.00,Rainwise IP-100,2013-06-10 10:00:00,
2013-06-10 06:05:00,62.8,61.5,30.19,NNE,22,2.3,4.2,94,0.00,,,0.00,Rainwise IP-100,2013-06-10 10:05:00,
2013-06-10 06:10:00,63.0,61.5,30.19,North,360,3.5,4.4,94,0.00,,,0.00,Rainwise IP-100,2013-06-10 10:10:00,
2013-06-10 06:16:00,63.1,61.5,30.20,North,360,3.3,4.2,94,0.00,,,0.00,Rainwise IP-100,2013-06-10 10:16:00,
2013-06-10 06:21:00,63.2,61.5,30.20,North,360,2.1,4.4,94,0.00,,,0.00,Rainwise IP-100,2013-06-10 10:21:00,
2013-06-10 06:26:00,63.3,61.5,30.19,NE,45,2.3,4.0,94,0.00,,,0.00,Rainwise IP-100,2013-06-10 10:26:00,
2013-06-10 06:31:00,63.4,61.5,30.19,NNE,22,1.2,4.4,93,0.00,,,0.00,Rainwise IP-100,2013-06-10 10:31:00,
2013-06-10 06:36:00,63.5,61.5,30.19,ENE,67,1.4,4.0,93,0.00,,,0.00,Rainwise IP-100,2013-06-10 10:36:00,
2013-06-10 06:41:00,63.5,61.5,30.19,NNE,22,2.6,4.0,93,0.00,,,0.00,Rainwise IP-100,2013-06-10 10:41:00,
2013-06-10 06:46:00,63.7,61.5,30.19,NNE,22,3.0,3.7,93,0.00,,,0.00,Rainwise IP-100,2013-06-10 10:46:00,
2013-06-10 06:52:00,63.8,62.0,30.19,NNE,22,2.1,4.0,93,0.00,,,0.00,Rainwise IP-100,2013-06-10 10:52:00,
2013-06-10 06:56:00,64.0,62.0,30.19,ENE,67,2.6,4.9,93,0.00,,,0.00,Rainwise IP-100,2013-06-10 10:56:00,
2013-06-10 07:01:00,64.2,62.0,30.18,NNE,22,2.1,3.3,93,0.00,,,0.00,Rainwise IP-100,2013-06-10 11:01:00,
2013-06-10 07:06:00,64.4,62.5,30.18,NNE,22,2.8,9.1,93,0.00,,,0.00,Rainwise IP-100,2013-06-10 11:06:00,
2013-06-10 07:11:00,64.6,62.5,30.18,NNE,22,4.4,8.2,93,0.00,,,0.00,Rainwise IP-100,2013-06-10 11:11:00,
2013-06-10 07:17:00,64.8,63.0,30.18,ENE,67,6.1,6.1,93,0.00,,,0.00,Rainwise IP-100,2013-06-10 11:17:00,
2013-06-10 07:22:00,64.9,62.5,30.19,East,90,2.1,8.6,92,0.00,,,0.00,Rainwise IP-100,2013-06-10 11:22:00,
2013-06-10 07:27:00,65.0,62.5,30.19,East,90,3.7,7.0,92,0.00,,,0.00,Rainwise IP-100,2013-06-10 11:27:00,
2013-06-10 07:32:00,65.1,62.5,30.19,NE,45,1.4,7.5,92,0.00,,,0.00,Rainwise IP-100,2013-06-10 11:32:00,
2013-06-10 07:37:00,65.2,62.5,30.19,ESE,112,5.8,5.8,92,0.00,,,0.00,Rainwise IP-100,2013-06-10 11:37:00,
2013-06-10 07:42:00,65.1,62.5,30.18,ESE,112,4.9,7.0,92,0.00,,,0.00,Rainwise IP-100,2013-06-10 11:42:00,
2013-06-10 07:47:00,65.1,62.5,30.19,ESE,112,4.7,6.1,92,0.00,,,0.00,Rainwise IP-100,2013-06-10 11:47:00,
2013-06-10 07:52:00,65.1,63.0,30.19,ESE,112,5.6,7.7,93,0.00,,,0.00,Rainwise IP-100,2013-06-10 11:52:00,
2013-06-10 07:58:00,65.0,63.0,30.19,East,90,4.7,7.0,93,0.00,,,0.00,Rainwise IP-100,2013-06-10 11:58:00,
2013-06-10 08:03:00,65.1,63.0,30.19,East,90,5.4,7.2,93,0.00,,,0.00,Rainwise IP-100,2013-06-10 12:03:00,
2013-06-10 08:08:00,65.1,63.0,30.18,ESE,112,5.1,8.9,93,0.00,,,0.00,Rainwise IP-100,2013-06-10 12:08:00,
2013-06-10 08:13:00,65.2,63.0,30.18,ENE,67,5.4,7.5,93,0.00,,,0.00,Rainwise IP-100,2013-06-10 12:13:00,
2013-06-10 08:18:00,65.1,63.0,30.18,ENE,67,4.0,7.9,93,0.00,,,0.00,Rainwise IP-100,2013-06-10 12:18:00,
2013-06-10 08:23:00,65.1,63.0,30.18,ENE,67,4.7,8.4,93,0.00,,,0.00,Rainwise IP-100,2013-06-10 12:23:00,
2013-06-10 08:28:00,65.0,63.0,30.18,East,90,2.3,10.0,94,0.00,,,0.00,Rainwise IP-100,2013-06-10 12:28:00,
2013-06-10 08:33:00,65.1,63.0,30.18,East,90,9.1,10.0,94,0.00,,,0.00,Rainwise IP-100,2013-06-10 12:33:00,
2013-06-10 08:39:00,65.0,63.0,30.18,East,90,6.8,11.4,94,0.00,,,0.00,Rainwise IP-100,2013-06-10 12:39:00,
2013-06-10 08:44:00,64.9,63.0,30.18,ESE,112,4.4,11.7,94,0.00,,,0.00,Rainwise IP-100,2013-06-10 12:44:00,
2013-06-10 08:49:00,64.9,63.0,30.19,East,90,4.9,10.3,94,0.00,,,0.00,Rainwise IP-100,2013-06-10 12:49:00,
2013-06-10 08:54:00,64.9,63.0,30.19,ENE,67,3.3,10.3,94,0.00,,,0.00,Rainwise IP-100,2013-06-10 12:54:00,
2013-06-10 08:59:00,65.0,63.0,30.18,ENE,67,7.0,9.3,94,0.00,,,0.00,Rainwise IP-100,2013-06-10 12:59:00,
2013-06-10 09:04:00,65.1,63.0,30.19,East,90,9.1,9.1,94,0.00,,,0.00,Rainwise IP-100,2013-06-10 13:04:00,
2013-06-10 09:09:00,65.1,63.0,30.18,ENE,67,4.9,9.3,94,0.00,,,0.00,Rainwise IP-100,2013-06-10 13:09:00,
2013-06-10 09:15:00,65.1,63.0,30.19,ENE,67,4.4,8.4,94,0.00,,,0.00,Rainwise IP-100,2013-06-10 13:15:00,
2013-06-10 09:20:00,65.3,63.5,30.18,NNE,22,3.0,9.6,94,0.00,,,0.00,Rainwise IP-100,2013-06-10 13:20:00,
2013-06-10 09:25:00,65.3,63.5,30.18,ENE,67,3.0,9.6,94,0.00,,,0.00,Rainwise IP-100,2013-06-10 13:25:00,
2013-06-10 09:30:00,65.2,63.0,30.18,East,90,2.1,8.4,94,0.00,,,0.00,Rainwise IP-100,2013-06-10 13:30:00,
2013-06-10 09:35:00,65.3,63.5,30.18,East,90,0.0,4.7,94,0.00,,,0.00,Rainwise IP-100,2013-06-10 13:35:00,
2013-06-10 09:40:00,65.4,63.5,30.19,East,90,4.7,6.3,94,0.00,,,0.00,Rainwise IP-100,2013-06-10 13:40:00,
2013-06-10 09:45:00,65.4,63.5,30.18,ENE,67,3.7,5.8,94,0.00,,,0.00,Rainwise IP-100,2013-06-10 13:45:00,
2013-06-10 09:50:00,65.5,63.5,30.18,East,90,3.5,5.4,94,0.00,,,0.00,Rainwise IP-100,2013-06-10 13:50:00,
2013-06-10 09:56:00,65.5,63.5,30.18,ENE,67,4.7,7.7,94,0.00,,,0.00,Rainwise IP-100,2013-06-10 13:56:00,
2013-06-10 10:01:00,65.5,63.5,30.18,ENE,67,4.2,6.8,94,0.00,,,0.00,Rainwise IP-100,2013-06-10 14:01:00,
2013-06-10 10:06:00,65.5,63.5,30.17,ENE,67,4.7,7.0,94,0.00,,,0.00,Rainwise IP-100,2013-06-10 14:06:00,
2013-06-10 10:11:00,65.5,63.5,30.17,East,90,7.5,12.1,94,0.00,,,0.00,Rainwise IP-100,2013-06-10 14:11:00,
2013-06-10 10:16:00,65.3,63.5,30.17,ENE,67,6.3,11.7,94,0.00,,,0.00,Rainwise IP-100,2013-06-10 14:16:00,
2013-06-10 10:21:00,65.5,64.0,30.16,ENE,67,5.4,9.1,95,0.00,,,0.00,Rainwise IP-100,2013-06-10 14:21:00,
2013-06-10 10:26:00,65.7,64.0,30.17,ENE,67,4.4,9.1,95,0.00,,,0.00,Rainwise IP-100,2013-06-10 14:26:00,
2013-06-10 10:32:00,65.9,64.0,30.16,East,90,4.0,9.6,94,0.00,,,0.00,Rainwise IP-100,2013-06-10 14:32:00,
2013-06-10 10:37:00,66.1,64.0,30.16,ENE,67,1.2,7.7,94,0.00,,,0.00,Rainwise IP-100,2013-06-10 14:37:00,
2013-06-10 10:42:00,66.3,64.5,30.16,ENE,67,5.8,7.9,94,0.00,,,0.00,Rainwise IP-100,2013-06-10 14:42:00,
2013-06-10 10:47:00,66.4,64.5,30.17,ENE,67,5.8,7.9,94,0.00,,,0.00,Rainwise IP-100,2013-06-10 14:47:00,
2013-06-10 10:49:00,66.5,65.0,30.17,ENE,67,4.9,8.6,94,0.00,,,0.00,Rainwise IP-100,2013-06-10 14:49:00,
2013-06-10 10:51:00,66.6,64.5,30.16,ENE,67,5.4,9.6,93,0.00,,,0.00,Rainwise IP-100,2013-06-10 14:51:00,
2013-06-10 10:57:00,66.8,64.5,30.16,NE,45,3.0,7.2,93,0.00,,,0.00,Rainwise IP-100,2013-06-10 14:57:00,
2013-06-10 11:02:00,67.0,65.0,30.17,ENE,67,0.0,7.5,93,0.00,,,0.00,Rainwise IP-100,2013-06-10 15:02:00,
2013-06-10 11:06:00,67.2,65.0,30.17,East,90,2.8,7.0,92,0.00,,,0.00,Rainwise IP-100,2013-06-10 15:06:00,
2013-06-10 11:11:00,67.3,65.5,30.16,ESE,112,6.1,6.8,92,0.00,,,0.00,Rainwise IP-100,2013-06-10 15:11:00,
2013-06-10 11:17:00,67.2,65.0,30.16,East,90,6.3,8.6,92,0.00,,,0.00,Rainwise IP-100,2013-06-10 15:17:00,
2013-06-10 11:21:00,67.0,65.0,30.16,ENE,67,5.8,8.2,92,0.00,,,0.00,Rainwise IP-100,2013-06-10 15:21:00,
2013-06-10 11:22:00,67.0,65.0,30.16,ENE,67,5.4,8.2,92,0.00,,,0.00,Rainwise IP-100,2013-06-10 15:22:00,
2013-06-10 11:27:00,67.0,65.0,30.16,ESE,112,4.4,8.6,92,0.00,,,0.00,Rainwise IP-100,2013-06-10 15:27:00,
2013-06-10 11:32:00,67.0,65.0,30.16,East,90,5.1,9.8,92,0.00,,,0.00,Rainwise IP-100,2013-06-10 15:32:00,
2013-06-10 11:37:00,67.0,65.0,30.16,East,90,3.0,8.6,92,0.00,,,0.00,Rainwise IP-100,2013-06-10 15:37:00,
2013-06-10 11:42:00,67.2,65.0,30.16,ENE,67,7.9,8.9,92,0.00,,,0.00,Rainwise IP-100,2013-06-10 15:42:00,
2013-06-10 11:47:00,67.6,65.0,30.16,ESE,112,4.4,10.3,91,0.00,,,0.00,Rainwise IP-100,2013-06-10 15:47:00,
2013-06-10 11:52:00,67.8,65.5,30.16,ESE,112,4.7,9.3,91,0.00,,,0.00,Rainwise IP-100,2013-06-10 15:52:00,
2013-06-10 11:57:00,67.6,65.0,30.17,ESE,112,6.8,10.5,91,0.00,,,0.00,Rainwise IP-100,2013-06-10 15:57:00,
2013-06-10 12:03:00,67.2,64.5,30.16,ESE,112,7.9,8.9,91,0.00,,,0.00,Rainwise IP-100,2013-06-10 16:03:00,
2013-06-10 12:08:00,66.8,64.0,30.17,East,90,7.5,8.9,91,0.00,,,0.00,Rainwise IP-100,2013-06-10 16:08:00,
2013-06-10 12:13:00,66.8,64.5,30.17,East,90,7.2,11.0,92,0.00,,,0.00,Rainwise IP-100,2013-06-10 16:13:00,
2013-06-10 12:18:00,66.6,64.5,30.16,ESE,112,5.6,10.5,93,0.00,,,0.00,Rainwise IP-100,2013-06-10 16:18:00,
2013-06-10 12:23:00,66.3,64.0,30.16,East,90,7.9,13.5,93,0.06,,,0.01,Rainwise IP-100,2013-06-10 16:23:00,
2013-06-10 12:28:00,65.8,64.0,30.16,East,90,11.2,14.2,93,0.12,,,0.02,Rainwise IP-100,2013-06-10 16:28:00,
2013-06-10 12:33:00,65.4,63.5,30.16,East,90,6.3,13.5,94,0.12,,,0.03,Rainwise IP-100,2013-06-10 16:33:00,
2013-06-10 12:38:00,65.2,63.5,30.16,East,90,5.8,12.4,95,0.12,,,0.04,Rainwise IP-100,2013-06-10 16:38:00,
2013-06-10 12:44:00,64.9,63.5,30.16,ENE,67,6.5,14.9,95,0.12,,,0.05,Rainwise IP-100,2013-06-10 16:44:00,
2013-06-10 12:49:00,64.7,63.5,30.16,ESE,112,5.6,14.7,96,0.06,,,0.06,Rainwise IP-100,2013-06-10 16:49:00,
2013-06-10 12:54:00,64.6,63.5,30.16,East,90,11.0,14.0,96,0.12,,,0.07,Rainwise IP-100,2013-06-10 16:54:00,
2013-06-10 12:59:00,64.5,63.5,30.16,ESE,112,8.9,13.3,97,0.12,,,0.08,Rainwise IP-100,2013-06-10 16:59:00,
2013-06-10 13:04:00,64.3,63.5,30.16,East,90,9.3,14.7,97,0.06,,,0.08,Rainwise IP-100,2013-06-10 17:04:00,
2013-06-10 13:09:00,64.1,63.0,30.16,ESE,112,9.6,12.4,97,0.06,,,0.09,Rainwise IP-100,2013-06-10 17:09:00,
2013-06-10 13:14:00,64.1,63.0,30.16,East,90,7.9,14.9,97,0.06,,,0.10,Rainwise IP-100,2013-06-10 17:14:00,
2013-06-10 13:20:00,64.0,63.5,30.16,ESE,112,9.8,13.3,98,0.06,,,0.10,Rainwise IP-100,2013-06-10 17:20:00,
2013-06-10 13:25:00,64.0,63.5,30.15,East,90,10.3,13.5,98,0.12,,,0.11,Rainwise IP-100,2013-06-10 17:25:00,
2013-06-10 13:30:00,64.1,63.5,30.15,East,90,9.6,12.8,98,0.12,,,0.12,Rainwise IP-100,2013-06-10 17:30:00,
2013-06-10 13:35:00,64.3,64.0,30.15,East,90,9.1,11.9,98,0.12,,,0.13,Rainwise IP-100,2013-06-10 17:35:00,
2013-06-10 13:40:00,64.3,64.0,30.14,East,90,10.7,12.1,98,0.12,,,0.14,Rainwise IP-100,2013-06-10 17:40:00,
2013-06-10 13:45:00,64.3,64.0,30.13,ESE,112,11.0,16.3,98,0.12,,,0.15,Rainwise IP-100,2013-06-10 17:45:00,
2013-06-10 13:50:00,64.3,64.0,30.13,ESE,112,10.0,15.2,98,0.12,,,0.16,Rainwise IP-100,2013-06-10 17:50:00,
2013-06-10 13:55:00,64.3,64.0,30.13,ESE,112,9.1,13.3,99,0.12,,,0.17,Rainwise IP-100,2013-06-10 17:55:00,
2013-06-10 14:01:00,64.4,64.0,30.12,ESE,112,11.0,14.0,99,0.06,,,0.17,Rainwise IP-100,2013-06-10 18:01:00,
2013-06-10 14:06:00,64.6,64.0,30.11,ESE,112,13.5,21.0,98,0.00,,,0.17,Rainwise IP-100,2013-06-10 18:06:00,
2013-06-10 14:11:00,64.9,64.5,30.12,ESE,112,11.9,15.9,98,0.00,,,0.17,Rainwise IP-100,2013-06-10 18:11:00,
2013-06-10 14:16:00,65.0,64.5,30.11,East,90,13.8,18.0,98,0.06,,,0.18,Rainwise IP-100,2013-06-10 18:16:00,
2013-06-10 14:21:00,65.0,64.5,30.11,ESE,112,14.5,22.4,98,0.06,,,0.18,Rainwise IP-100,2013-06-10 18:21:00,
2013-06-10 14:26:00,64.9,64.0,30.11,ESE,112,15.4,21.0,97,0.06,,,0.19,Rainwise IP-100,2013-06-10 18:26:00,
2013-06-10 14:31:00,64.7,63.5,30.12,ESE,112,11.0,20.3,97,0.12,,,0.20,Rainwise IP-100,2013-06-10 18:31:00,
2013-06-10 14:37:00,64.6,63.5,30.11,ESE,112,14.2,19.6,97,0.12,,,0.21,Rainwise IP-100,2013-06-10 18:37:00,
2013-06-10 14:42:00,64.5,64.0,30.11,East,90,7.2,19.6,98,0.06,,,0.21,Rainwise IP-100,2013-06-10 18:42:00,
2013-06-10 14:47:00,64.3,64.0,30.10,East,90,12.6,16.1,98,0.18,,,0.24,Rainwise IP-100,2013-06-10 18:47:00,
2013-06-10 14:52:00,64.0,63.5,30.11,ENE,67,9.1,21.0,98,0.18,,,0.24,Rainwise IP-100,2013-06-10 18:52:00,
2013-06-10 14:57:00,63.9,63.5,30.11,East,90,13.1,15.4,98,0.06,,,0.25,Rainwise IP-100,2013-06-10 18:57:00,
2013-06-10 15:02:00,63.7,63.0,30.10,East,90,11.9,16.3,98,0.12,,,0.26,Rainwise IP-100,2013-06-10 19:02:00,
2013-06-10 15:07:00,63.7,63.0,30.10,East,90,7.5,15.4,98,0.12,,,0.27,Rainwise IP-100,2013-06-10 19:07:00,
2013-06-10 15:12:00,63.8,63.5,30.10,ESE,112,10.3,16.6,98,0.06,,,0.27,Rainwise IP-100,2013-06-10 19:12:00,
2013-06-10 15:18:00,63.9,63.5,30.10,East,90,13.1,18.2,98,0.00,,,0.27,Rainwise IP-100,2013-06-10 19:18:00,
2013-06-10 15:23:00,63.9,63.5,30.09,East,90,4.9,16.8,98,0.00,,,0.27,Rainwise IP-100,2013-06-10 19:23:00,
2013-06-10 15:28:00,64.0,63.5,30.08,East,90,11.9,17.0,98,0.00,,,0.27,Rainwise IP-100,2013-06-10 19:28:00,
2013-06-10 15:33:00,64.0,63.5,30.08,East,90,8.4,19.6,98,0.06,,,0.28,Rainwise IP-100,2013-06-10 19:33:00,
2013-06-10 15:38:00,64.0,63.5,30.08,NE,45,13.8,16.1,98,0.06,,,0.28,Rainwise IP-100,2013-06-10 19:38:00,
2013-06-10 15:43:00,64.0,63.5,30.08,ESE,112,7.5,18.9,99,0.00,,,0.28,Rainwise IP-100,2013-06-10 19:43:00,
2013-06-10 15:48:00,64.0,63.5,30.08,ENE,67,12.1,18.4,99,0.00,,,0.28,Rainwise IP-100,2013-06-10 19:48:00,
2013-06-10 15:54:00,64.0,63.5,30.08,ENE,67,10.7,14.7,99,0.18,,,0.32,Rainwise IP-100,2013-06-10 19:54:00,
2013-06-10 15:59:00,64.0,63.5,30.08,ENE,67,2.8,19.4,99,0.54,,,0.38,Rainwise IP-100,2013-06-10 19:59:00,
2013-06-10 16:04:00,63.9,63.5,30.07,ENE,67,11.9,20.3,99,0.54,,,0.41,Rainwise IP-100,2013-06-10 20:04:00,
2013-06-10 16:09:00,63.8,63.5,30.06,NE,45,4.7,16.6,99,0.30,,,0.43,Rainwise IP-100,2013-06-10 20:09:00,
2013-06-10 16:14:00,63.8,63.5,30.06,East,90,16.1,16.8,99,0.12,,,0.43,Rainwise IP-100,2013-06-10 20:14:00,
2013-06-10 16:19:00,63.9,63.5,30.06,East,90,9.1,18.0,99,0.12,,,0.45,Rainwise IP-100,2013-06-10 20:19:00,
2013-06-10 16:24:00,63.9,63.5,30.06,East,90,8.4,19.8,98,0.24,,,0.47,Rainwise IP-100,2013-06-10 20:24:00,
2013-06-10 16:30:00,63.8,63.5,30.06,East,90,9.8,18.0,98,0.24,,,0.49,Rainwise IP-100,2013-06-10 20:30:00,
2013-06-10 16:35:00,63.8,63.5,30.06,East,90,12.8,15.4,98,0.24,,,0.51,Rainwise IP-100,2013-06-10 20:35:00,
2013-06-10 16:40:00,63.6,63.0,30.06,ESE,112,7.7,16.3,98,0.24,,,0.53,Rainwise IP-100,2013-06-10 20:40:00,
2013-06-10 16:45:00,63.6,63.0,30.05,ENE,67,13.1,18.2,99,0.18,,,0.54,Rainwise IP-100,2013-06-10 20:45:00,
2013-06-10 16:50:00,63.6,63.0,30.05,East,90,8.9,14.5,99,0.12,,,0.55,Rainwise IP-100,2013-06-10 20:50:00,
2013-06-10 16:55:00,63.5,63.0,30.04,ENE,67,10.5,23.3,99,0.18,,,0.57,Rainwise IP-100,2013-06-10 20:55:00,
2013-06-10 17:00:00,63.4,63.0,30.05,ENE,67,11.2,18.2,99,0.18,,,0.58,Rainwise IP-100,2013-06-10 21:00:00,
2013-06-10 17:05:00,63.3,63.0,30.04,East,90,12.6,19.1,99,0.12,,,0.59,Rainwise IP-100,2013-06-10 21:05:00,
2013-06-10 17:11:00,63.3,63.0,30.05,ESE,112,14.0,17.0,99,0.12,,,0.61,Rainwise IP-100,2013-06-10 21:11:00,
2013-06-10 17:16:00,63.2,62.5,30.04,East,90,11.0,17.7,99,0.12,,,0.62,Rainwise IP-100,2013-06-10 21:16:00,
2013-06-10 17:21:00,63.1,62.5,30.04,ENE,67,17.0,17.7,99,0.18,,,0.64,Rainwise IP-100,2013-06-10 21:21:00,
2013-06-10 17:26:00,62.9,62.5,30.04,North,360,3.0,18.7,99,0.18,,,0.65,Rainwise IP-100,2013-06-10 21:26:00,
2013-06-10 17:31:00,62.7,62.0,30.04,NE,45,8.9,11.7,99,0.18,,,0.67,Rainwise IP-100,2013-06-10 21:31:00,
2013-06-10 17:36:00,62.6,62.0,30.02,ENE,67,6.8,15.4,99,0.24,,,0.69,Rainwise IP-100,2013-06-10 21:36:00,
2013-06-10 17:41:00,62.5,62.0,30.02,NE,45,6.8,21.2,99,0.12,,,0.69,Rainwise IP-100,2013-06-10 21:41:00,
2013-06-10 17:47:00,62.5,62.0,30.02,ENE,67,7.9,18.2,99,0.06,,,0.70,Rainwise IP-100,2013-06-10 21:47:00,
2013-06-10 17:52:00,62.4,62.0,30.02,ENE,67,12.6,15.9,99,0.06,,,0.70,Rainwise IP-100,2013-06-10 21:52:00,
2013-06-10 17:57:00,62.3,62.0,30.02,ENE,67,11.2,18.7,99,0.00,,,0.70,Rainwise IP-100,2013-06-10 21:57:00,
2013-06-10 18:02:00,62.3,62.0,30.02,East,90,6.1,18.0,99,0.00,,,0.70,Rainwise IP-100,2013-06-10 22:02:00,
2013-06-10 18:07:00,62.2,61.5,30.02,SE,135,5.4,16.1,99,0.00,,,0.70,Rainwise IP-100,2013-06-10 22:07:00,
2013-06-10 18:12:00,62.1,61.5,30.01,ENE,67,7.5,14.9,99,0.00,,,0.70,Rainwise IP-100,2013-06-10 22:12:00,
2013-06-10 18:17:00,62.1,61.5,30.01,ENE,67,12.1,16.1,99,0.06,,,0.71,Rainwise IP-100,2013-06-10 22:17:00,
2013-06-10 18:22:00,62.2,61.5,30.01,East,90,5.1,17.7,99,0.06,,,0.71,Rainwise IP-100,2013-06-10 22:22:00,
2013-06-10 18:28:00,62.2,61.5,30.01,ENE,67,13.1,15.6,99,0.00,,,0.71,Rainwise IP-100,2013-06-10 22:28:00,
2013-06-10 18:33:00,62.2,61.5,30.02,ENE,67,8.4,14.9,99,0.00,,,0.71,Rainwise IP-100,2013-06-10 22:33:00,
2013-06-10 18:38:00,62.1,61.5,30.02,ENE,67,6.5,13.8,99,0.00,,,0.71,Rainwise IP-100,2013-06-10 22:38:00,
2013-06-10 18:43:00,62.0,61.5,30.01,ENE,67,6.5,15.9,99,0.00,,,0.71,Rainwise IP-100,2013-06-10 22:43:00,
2013-06-10 18:45:00,62.0,61.5,30.02,East,90,15.4,18.4,99,0.06,,,0.72,Rainwise IP-100,2013-06-10 22:45:00,
2013-06-10 18:46:00,61.9,61.5,30.02,NNE,22,5.4,18.4,99,0.06,,,0.72,Rainwise IP-100,2013-06-10 22:46:00,
2013-06-10 18:51:00,61.8,61.5,30.01,ENE,67,9.3,16.8,99,0.30,,,0.76,Rainwise IP-100,2013-06-10 22:51:00,
2013-06-10 18:57:00,61.7,61.0,30.01,ENE,67,9.1,17.0,99,0.30,,,0.77,Rainwise IP-100,2013-06-10 22:57:00,
2013-06-10 19:02:00,61.7,61.0,30.01,ENE,67,11.7,18.2,99,0.06,,,0.78,Rainwise IP-100,2013-06-10 23:02:00,
2013-06-10 19:07:00,61.7,61.0,30.01,NNE,22,5.1,19.6,99,0.06,,,0.78,Rainwise IP-100,2013-06-10 23:07:00,
2013-06-10 19:12:00,61.7,61.0,30.01,East,90,11.4,15.9,99,0.12,,,0.80,Rainwise IP-100,2013-06-10 23:12:00,
2013-06-10 19:17:00,61.7,61.0,30.01,ENE,67,9.8,16.6,99,0.18,,,0.81,Rainwise IP-100,2013-06-10 23:17:00,
2013-06-10 19:22:00,61.7,61.5,30.00,NE,45,4.2,15.2,100,0.24,,,0.85,Rainwise IP-100,2013-06-10 23:22:00,
2013-06-10 19:27:00,61.7,61.5,30.00,ENE,67,19.4,19.4,100,0.24,,,0.85,Rainwise IP-100,2013-06-10 23:27:00,
2013-06-10 19:32:00,61.7,61.5,30.01,ENE,67,6.5,19.4,100,0.18,,,0.87,Rainwise IP-100,2013-06-10 23:32:00,
2013-06-10 19:38:00,61.7,61.5,30.00,East,90,13.5,17.5,100,0.18,,,0.88,Rainwise IP-100,2013-06-10 23:38:00,
2013-06-10 19:43:00,61.7,61.5,30.00,ENE,67,7.7,16.3,100,0.12,,,0.89,Rainwise IP-100,2013-06-10 23:43:00,
2013-06-10 19:48:00,61.6,61.5,30.00,East,90,10.7,19.8,100,0.12,,,0.90,Rainwise IP-100,2013-06-10 23:48:00,
2013-06-10 19:53:00,61.5,61.5,30.00,ESE,112,6.8,14.9,100,0.12,,,0.91,Rainwise IP-100,2013-06-10 23:53:00,
2013-06-10 19:58:00,61.5,61.5,30.00,NE,45,8.9,16.1,100,0.12,,,0.92,Rainwise IP-100,2013-06-10 23:58:00,
2013-06-10 20:03:00,61.5,61.5,29.99,ENE,67,11.2,23.6,100,0.12,,,0.93,Rainwise IP-100,2013-06-11 00:03:00,
2013-06-10 20:08:00,61.5,61.0,29.99,NE,45,6.1,19.6,99,0.06,,,0.93,Rainwise IP-100,2013-06-11 00:08:00,
2013-06-10 20:13:00,61.5,61.0,29.98,ENE,67,13.1,17.7,99,0.00,,,0.93,Rainwise IP-100,2013-06-11 00:13:00,
2013-06-10 20:19:00,61.4,61.0,29.98,ENE,67,12.4,17.5,99,0.00,,,0.93,Rainwise IP-100,2013-06-11 00:19:00,
2013-06-10 20:24:00,61.4,61.0,29.98,ENE,67,12.1,17.3,99,0.00,,,0.93,Rainwise IP-100,2013-06-11 00:24:00,
2013-06-10 20:29:00,61.4,61.0,29.98,NE,45,7.7,18.9,99,0.00,,,0.93,Rainwise IP-100,2013-06-11 00:29:00,
2013-06-10 20:34:00,61.4,61.0,29.97,East,90,12.6,17.3,99,0.00,,,0.93,Rainwise IP-100,2013-06-11 00:34:00,
2013-06-10 20:39:00,61.3,61.0,29.97,NNE,22,2.8,16.1,99,0.06,,,0.94,Rainwise IP-100,2013-06-11 00:39:00,
2013-06-10 20:44:00,61.2,60.5,29.98,NE,45,14.7,16.1,99,0.06,,,0.94,Rainwise IP-100,2013-06-11 00:44:00,
2013-06-10 20:49:00,61.1,60.5,29.97,NNE,22,6.8,21.5,99,0.12,,,0.96,Rainwise IP-100,2013-06-11 00:49:00,
2013-06-10 20:55:00,61.0,60.5,29.97,ENE,67,13.5,20.3,99,0.12,,,0.96,Rainwise IP-100,2013-06-11 00:55:00,
2013-06-10 21:00:00,61.1,60.5,29.96,NE,45,2.8,19.1,99,0.00,,,0.96,Rainwise IP-100,2013-06-11 01:00:00,
2013-06-10 21:05:00,61.1,60.5,29.96,NE,45,6.3,20.8,99,0.06,,,0.97,Rainwise IP-100,2013-06-11 01:05:00,
2013-06-10 21:10:00,61.1,60.5,29.96,ENE,67,12.4,19.6,99,0.18,,,0.99,Rainwise IP-100,2013-06-11 01:10:00,
2013-06-10 21:15:00,61.0,60.5,29.95,ENE,67,8.2,19.8,99,0.12,,,0.99,Rainwise IP-100,2013-06-11 01:15:00,
2013-06-10 21:20:00,60.9,60.5,29.96,NE,45,7.5,13.3,99,0.06,,,1.00,Rainwise IP-100,2013-06-11 01:20:00,
2013-06-10 21:25:00,60.9,60.5,29.96,East,90,10.3,17.3,99,0.06,,,1.00,Rainwise IP-100,2013-06-11 01:25:00,
2013-06-10 21:30:00,60.9,60.5,29.96,ENE,67,6.3,17.3,99,0.00,,,1.00,Rainwise IP-100,2013-06-11 01:30:00,
2013-06-10 21:36:00,60.9,60.5,29.95,ENE,67,11.4,16.6,99,0.00,,,1.00,Rainwise IP-100,2013-06-11 01:36:00,
2013-06-10 21:41:00,61.0,60.5,29.96,ENE,67,14.0,19.1,99,0.12,,,1.02,Rainwise IP-100,2013-06-11 01:41:00,
2013-06-10 21:46:00,61.1,60.5,29.95,ENE,67,7.9,14.9,99,0.18,,,1.03,Rainwise IP-100,2013-06-11 01:46:00,
2013-06-10 21:51:00,61.1,60.5,29.96,ENE,67,8.2,16.8,99,0.12,,,1.05,Rainwise IP-100,2013-06-11 01:51:00,
2013-06-10 21:56:00,61.1,60.5,29.95,NNE,22,14.0,18.2,99,0.30,,,1.08,Rainwise IP-100,2013-06-11 01:56:00,
2013-06-10 22:01:00,61.1,60.5,29.95,ENE,67,10.5,16.1,99,0.24,,,1.09,Rainwise IP-100,2013-06-11 02:01:00,
2013-06-10 22:06:00,61.1,60.5,29.95,NNE,22,3.3,19.8,99,0.06,,,1.09,Rainwise IP-100,2013-06-11 02:06:00,
2013-06-10 22:11:00,61.2,60.5,29.96,East,90,10.3,18.9,99,0.06,,,1.10,Rainwise IP-100,2013-06-11 02:11:00,
2013-06-10 22:16:00,61.3,61.0,29.96,ENE,67,8.2,15.9,99,0.06,,,1.10,Rainwise IP-100,2013-06-11 02:16:00,
2013-06-10 22:22:00,61.3,61.0,29.96,ENE,67,14.0,15.9,99,0.00,,,1.10,Rainwise IP-100,2013-06-11 02:22:00,
2013-06-10 22:27:00,61.3,61.0,29.95,East,90,7.9,18.0,99,0.00,,,1.10,Rainwise IP-100,2013-06-11 02:27:00,
2013-06-10 22:32:00,61.3,61.0,29.95,ENE,67,6.1,18.9,99,0.00,,,1.10,Rainwise IP-100,2013-06-11 02:32:00,
2013-06-10 22:37:00,61.3,61.0,29.95,ENE,67,8.6,18.7,99,0.00,,,1.10,Rainwise IP-100,2013-06-11 02:37:00,
2013-06-10 22:42:00,61.2,60.5,29.95,East,90,12.6,18.7,99,0.06,,,1.11,Rainwise IP-100,2013-06-11 02:42:00,
2013-06-10 22:47:00,61.1,60.5,29.95,ENE,67,10.5,16.3,99,0.06,,,1.11,Rainwise IP-100,2013-06-11 02:47:00,
2013-06-10 22:52:00,60.9,60.5,29.94,NE,45,9.3,18.2,99,0.00,,,1.11,Rainwise IP-100,2013-06-11 02:52:00,
2013-06-10 22:58:00,60.8,60.5,29.94,East,90,6.3,17.7,99,0.00,,,1.11,Rainwise IP-100,2013-06-11 02:58:00,
2013-06-10 23:03:00,60.8,60.5,29.94,NNE,22,10.3,20.5,99,0.06,,,1.12,Rainwise IP-100,2013-06-11 03:03:00,
2013-06-10 23:08:00,60.8,60.5,29.94,ENE,67,8.6,13.8,99,0.06,,,1.13,Rainwise IP-100,2013-06-11 03:08:00,
2013-06-10 23:13:00,60.9,61.0,29.93,ESE,112,1.4,13.1,100,0.06,,,1.13,Rainwise IP-100,2013-06-11 03:13:00,
2013-06-10 23:18:00,60.8,61.0,29.93,ENE,67,4.7,15.2,100,0.00,,,1.13,Rainwise IP-100,2013-06-11 03:18:00,
2013-06-10 23:23:00,60.9,61.0,29.93,ENE,67,10.0,18.0,100,0.00,,,1.13,Rainwise IP-100,2013-06-11 03:23:00,
2013-06-10 23:28:00,60.8,61.0,29.92,ENE,67,4.4,13.8,100,0.06,,,1.14,Rainwise IP-100,2013-06-11 03:28:00,
2013-06-10 23:33:00,60.9,61.0,29.92,East,90,8.4,18.0,100,0.06,,,1.14,Rainwise IP-100,2013-06-11 03:33:00,
2013-06-10 23:39:00,60.9,61.0,29.91,ENE,67,4.0,14.5,100,0.00,,,1.14,Rainwise IP-100,2013-06-11 03:39:00,
2013-06-10 23:44:00,60.8,61.0,29.91,ENE,67,3.0,12.4,100,0.18,,,1.18,Rainwise IP-100,2013-06-11 03:44:00,
2013-06-10 23:49:00,60.9,61.0,29.91,ENE,67,1.2,9.1,100,0.36,,,1.20,Rainwise IP-100,2013-06-11 03:49:00,
2013-06-10 23:54:00,60.9,61.0,29.91,ENE,67,6.3,9.6,100,0.06,,,1.20,Rainwise IP-100,2013-06-11 03:54:00,
2013-06-10 23:59:00,61.0,61.0,29.90,ENE,67,3.5,10.7,100,0.18,,,1.23,Rainwise IP-100,2013-06-11 03:59:00,